Regional Weather Roundup
Issued by NWS

Home | Current Version | Previous Version | Graphics & Text | Print | Product List | Glossary On
Versions: 1 2 3 4 5 6 7 8 9 10 11 12 13 14 15 16 17 18 19 20 21 22 23 24 25 26 27 28 29 30 31 32 33 34 35 36 37 38 39 40 41 42 43 44 45 46 47 48 49 50
000
ASUS43 KOAX 181810
RWRNE

WEATHER ROUNDUP FOR NEBRASKA
NATIONAL WEATHER SERVICE OMAHA NE
1200 PM CST THU DEC 18 2014

NOTES: SATELLITE DATA IS BEING USED TO AUGMENT CLOUD COVER ABOVE
       12000 FEET.
       "FAIR" INDICATES FEW OR NO CLOUDS BELOW 12,000 FEET WITH NO
       SIGNIFICANT WEATHER AND/OR OBSTRUCTIONS TO VISIBILITY.

  * THESE STATIONS DO NOT REPORT WEATHER SUCH AS RAIN...SNOW OR FOG.

NEZ001>004-019>022-054>056-181900-
NEBRASKA PANHANDLE

CITY           SKY/WX    TMP DP  RH WIND       PRES   REMARKS
SCOTTSBLUFF    MOSUNNY   13   9  84 NW6       30.07F FOG     WCI   4
6HR MIN TEMP:   6; 6HR MAX TEMP:  13; 6HR PCP: TRACE;

ALLIANCE       SUNNY     22  18  85 W7        30.04S WCI  13
6HR MIN TEMP:  -2; 6HR MAX TEMP:  22; 6HR PCP: TRACE;

CHADRON        SUNNY     22  20  92 SW3       30.05F
6HR MIN TEMP:   2; 6HR MAX TEMP:  22;

KIMBALL        SUNNY     38  22  53 W9        30.02S WCI  31
SIDNEY         SUNNY     31  22  69 W9        30.05S WCI  23
6HR MIN TEMP:   3; 6HR MAX TEMP:  31;

$$

NEZ057>060-069>072-079>082-181900-
SOUTHWEST NEBRASKA

CITY           SKY/WX    TMP DP  RH WIND       PRES   REMARKS
NORTH PLATTE   CLOUDY    27  24  89 SW7       30.11F FOG     WCI  19
6HR MIN TEMP:  24; 6HR MAX TEMP:  27;

IMPERIAL       CLOUDY    25  22  88 W6        30.10F FOG     WCI  18
6HR MIN TEMP:  25; 6HR MAX TEMP:  26;

LEXINGTON      CLOUDY    28  24  87 SW6       30.14F WCI  21
MCCOOK         CLOUDY    27  24  89 SW7       30.14F WCI  19
6HR MIN TEMP:  23; 6HR MAX TEMP:  27;

OGALLALA       CLOUDY    21  20  96 W3        30.09F FOG
$$

NEZ005>010-023>029-035>040-094-181900-
NORTH CENTRAL NEBRASKA

CITY           SKY/WX    TMP DP  RH WIND       PRES   REMARKS
VALENTINE      CLOUDY    26  22  84 SW8       30.08F FOG     WCI  18
6HR MIN TEMP:  25; 6HR MAX TEMP:  26;

AINSWORTH      CLOUDY    26  24  90 SW5       30.09F WCI  21
BROKEN BOW     CLOUDY    27  25  92 SW8       30.11F WCI  19
6HR MIN TEMP:  24; 6HR MAX TEMP:  27;

O`NEILL        CLOUDY    26  25  95 S5        30.15S FOG     WCI  21
ORD            CLOUDY    25  23  92 S9        30.14F FOG     WCI  15
6HR MIN TEMP:  23; 6HR MAX TEMP:  25;

THEDFORD       CLOUDY    28  25  90 SW6       30.08F WCI  21
$$

NEZ041-046>049-061>064-073>077-083>087-181900-
SOUTH CENTRAL NEBRASKA

CITY           SKY/WX    TMP DP  RH WIND       PRES   REMARKS
GRAND ISLAND   CLOUDY    27  23  85 S6        30.19F WCI  20
6HR MIN TEMP:  23; 6HR MAX TEMP:  27; 6HR PCP: TRACE;

AURORA         CLOUDY    28  25  90 CALM      30.18F
HASTINGS       CLOUDY    27  23  85 SW3       30.17F
6HR MIN TEMP:  24; 6HR MAX TEMP:  27;

HEBRON         CLOUDY    29  24  82 CALM      30.21F
HOLDREGE       CLOUDY    28  25  89 SW3       30.15F
KEARNEY *      CLOUDY    27  23  86 SW7       30.16F WCI  19
YORK             N/A    N/A N/A N/A MISG        N/A
$$

NEZ011>018-030>034-042>045-181900-
NORTHEAST NEBRASKA

CITY           SKY/WX    TMP DP  RH WIND       PRES   REMARKS
NORFOLK        CLOUDY    28  23  81 S6        30.18F WCI  22
6HR MIN TEMP:  24; 6HR MAX TEMP:  28; 6HR PCP: TRACE;

ALBION         CLOUDY    27  22  82 S6        30.17F WCI  20
BLAIR          CLOUDY    30  26  86 SE3       30.22F FOG
COLUMBUS *     CLOUDY    28  19  69 S6        30.21F WCI  22
FREMONT        CLOUDY    31  26  83 S5        30.22F WCI  26
TEKAMAH        CLOUDY    29  24  82 SE7       30.24F WCI  22
6HR MIN TEMP:  26; 6HR MAX TEMP:  29;

WAYNE          CLOUDY    29  24  81 S8        30.20F WCI  21
$$

NEZ050>053-065>068-078-088>093-181900-
SOUTHEAST NEBRASKA

CITY           SKY/WX    TMP DP  RH WIND       PRES   REMARKS
LINCOLN        CLOUDY    30  26  85 S3        30.24F FOG
6HR MIN TEMP:  26; 6HR MAX TEMP:  30; 6HR PCP:  0.02;

OMAHA EPPLEY   LGT SNOW  29  25  85 S7        30.25F WCI  22
6HR MIN TEMP:  26; 6HR MAX TEMP:  29; 6HR PCP:  0.02;

BEATRICE       CLOUDY    30  27  88 SE5       30.21F WCI  25
FALLS CITY     CLOUDY    30  26  85 E5        30.24F WCI  25
6HR MIN TEMP:  27; 6HR MAX TEMP:  30; 6HR PCP:  0.05;

NEBRASKA CITY  FLURRIES  29  27  91 SE5       30.23F WCI  24
PLATTSMOUTH    LGT SNOW  29  25  86 SE5       30.23F WCI  24
$$

NEZ044-045-051>053-067-181900-
OMAHA AREA

CITY           SKY/WX    TMP DP  RH WIND       PRES   REMARKS
OMAHA EPPLEY   LGT SNOW  29  25  85 S7        30.25F WCI  22
6HR MIN TEMP:  26; 6HR MAX TEMP:  29; 6HR PCP:  0.02;

BLAIR          CLOUDY    30  26  86 SE3       30.22F FOG
FREMONT        CLOUDY    31  26  83 S5        30.22F WCI  26
MILLARD        CLOUDY    30  26  84 SE6       30.23F WCI  24
OFFUTT AFB     CLOUDY    28  27  93 SE3       30.23F
PLATTSMOUTH    LGT SNOW  29  25  86 SE5       30.23F WCI  24
WAHOO          CLOUDY    30  26  83 S6        30.22F WCI  24
$$



USA.gov is the U.S. government's official web portal to all federal, state and local government web resources and services.